Torna al catalogo

ASTRID 2

AttivoScienzaPO
NORAD 25568·PAYLOAD·🇸🇪 Sweden

Lanciato Dec 10, 1998 da Plesetsk Cosmodrome

Loading…

Prossimi Passaggi (prossime 24 ore)

TLE

AggiornatoSource: Space-Track

Epoca: Sep 14, 2026, 07:40 UTC

1 25568U 98072B   26257.31990913  .00000102  00000-0  93490-4 0  9991
2 25568  82.9523  18.0791 0024725 194.3507 194.7531 13.73159166390208

Traccia ASTRID 2 in tempo reale con AllMySat

Download on the App Store